This is the latest recevied weather packets stored in our database for station/object VK3CG. If no packets are shown the sender has not sent any weather packets the latest 10 day(s).
| Time | Temp. | Humidity | Pressure | Rain* | Wind** | Luminosity | Snow |
|---|---|---|---|---|---|---|---|
| 1777247142 | 12.78° C | 74% | 1036.5 hPa | 0 mm | - | 181 W/m² | - |
| 1777246248 | 12.22° C | 74% | 1036.5 hPa | 0 mm | - | 171 W/m² | - |
| 1777245346 | 12.22° C | 74% | 1036.6 hPa | 0 mm | - | 160 W/m² | - |
| 1777244435 | 11.67° C | 74% | 1036.6 hPa | 0 mm | - | 121 W/m² | - |
| 1777243529 | 11.67° C | 74% | 1036.7 hPa | 0 mm | - | 81 W/m² | - |
| 1777242625 | 11.11° C | 74% | 1036.6 hPa | 0 mm | - | 69 W/m² | - |
| 1777241722 | 10.56° C | 73% | 1036.5 hPa | 0 mm | - | 51 W/m² | - |
| 1777240818 | 10° C | 73% | 1036.3 hPa | 0 mm | - | 42 W/m² | - |
| 1777239915 | 9.44° C | 72% | 1036.1 hPa | 0 mm | - | 35 W/m² | - |
| 1777239011 | 8.89° C | 72% | 1035.9 hPa | 0 mm | - | 16 W/m² | - |
| 1777238109 | 8.89° C | 72% | 1035.7 hPa | 0 mm | - | 7 W/m² | - |
| 1777237220 | 8.33° C | 72% | 1035.6 hPa | 0 mm | - | 0 W/m² | - |
| 1777236305 | 7.78° C | 70% | 1035.4 hPa | 0 mm | - | 0 W/m² | - |
| 1777235404 | 7.78° C | 70% | 1035.2 hPa | 0 mm | - | 0 W/m² | - |
| 1777234502 | 7.22° C | 70% | 1034.9 hPa | 0 mm | - | 0 W/m² | - |
| 1777233602 | 7.22° C | 69% | 1034.8 hPa | 0 mm | - | 0 W/m² | - |
| 1777232765 | 7.22° C | 70% | 1034.5 hPa | 0 mm | - | 0 W/m² | - |
| 1777231857 | 6.67° C | 69% | 1034.1 hPa | 0 mm | - | 0 W/m² | - |
| 1777230958 | 6.67° C | 69% | 1034.1 hPa | 0 mm | - | 0 W/m² | - |
| 1777230055 | 6.11° C | 69% | 1034.1 hPa | 0 mm | - | 0 W/m² | - |
| 1777229160 | 6.11° C | 68% | 1034 hPa | 0 mm | - | 0 W/m² | - |
| 1777228253 | 6.11° C | 68% | 1033.8 hPa | 0 mm | - | 0 W/m² | - |
| 1777227350 | 6.11° C | 68% | 1033.8 hPa | 0 mm | - | 0 W/m² | - |
| 1777226450 | 6.67° C | 68% | 1033.8 hPa | 0 mm | - | 0 W/m² | - |
| 1777225547 | 6.67° C | 68% | 1033.6 hPa | 0 mm | - | 0 W/m² | - |
* Rain latest hour (hover to see other rain measurements)
** Current wind speed in m/s (hover to see current wind gust speed)